Oelwein, IA

3:35 PM CST on December 14, 2017 (GMT -0600)
Oelwein Municipal

Weather History for KOLZ - March, 2013

Change the Weather History Date:

Thursday, March 7, 2013

  Actual Average Record
Temperature  
Mean Temperature 16 °F -  
Max Temperature 28 °F 40 °F 71 °F (1987)
Min Temperature 5 °F 20 °F -7 °F (1960)
Degree Days  
Heating Degree Days 48    
Moisture  
Dew Point 14 °F    
Average Humidity 84    
Maximum Humidity 93    
Minimum Humidity 74    
Precipitation  
Precipitation 0.01 in - - ()
Sea Level Pressure  
Sea Level Pressure 30.34 in    
Wind  
Wind Speed 3 mph (ESE)    
Max Wind Speed 14 mph    
Max Gust Speed -    
Visibility 7 miles    
Events      
Averages and records for this station are not official NWS values.
T = Trace of Precipitation, MM = Missing Value Source: NWS Daily Summary

Daily Weather History Graph

Daily Weather History Graph

Search for Another Location

Airport or City:

Trip Planner

Search our weather history database for the weather conditions in past years. The results will help you decide how hot, cold, wet, or windy it might be!

Date:

Astronomy

Mar. 07, 2013 Rise Set
Actual Time 6:33 AM CST 6:05 PM CST
Civil Twilight 6:04 AM CST 6:33 PM CST
Nautical Twilight 5:32 AM CST 7:06 PM CST
Astronomical Twilight 4:59 AM CST 7:38 PM CST
Moon 3:38 AM CST (3/7) 1:48 PM CST (3/7)
Length of Visible Light 12h 28m
Length of Day
11h 31m
Waning Crescent, 20% of the Moon is Illuminated
Mar 7
Waning Crescent
Mar 11
New
Mar 19
First Quarter
Mar 27
Full
Apr 2
Last Quarter

Hourly Weather History & Observations

Time (CST) Temp. Windchill Dew Point Humidity Pressure Visibility Wind Dir Wind Speed Gust Speed Precip Events Conditions
12:15 AM 8.6 °F - 5.0 °F 85% 30.32 in 3.0 mi Calm Calm - N/A   Clear
12:35 AM 8.6 °F - 5.0 °F 85% 30.33 in 2.5 mi Calm Calm - N/A   Clear
12:55 AM 8.6 °F - 6.8 °F 92% 30.34 in 3.0 mi Calm Calm - N/A   Clear
1:15 AM 10.4 °F - 6.8 °F 85% 30.35 in 2.0 mi Calm Calm - N/A   Clear
1:35 AM 10.4 °F - 8.6 °F 92% 30.35 in 2.5 mi Calm Calm - N/A   Clear
1:55 AM 8.6 °F - 5.0 °F 85% 30.35 in 3.0 mi Calm Calm - N/A   Clear
2:15 AM 6.8 °F - 3.2 °F 85% 30.34 in 2.5 mi Calm Calm - N/A   Clear
2:35 AM 5.0 °F - 1.4 °F 85% 30.33 in 3.0 mi Calm Calm - N/A   Clear
2:55 AM 5.0 °F - 1.4 °F 85% 30.32 in 4.0 mi Calm Calm - N/A   Clear
3:15 AM 6.8 °F - 3.2 °F 85% 30.32 in 3.0 mi Calm Calm - N/A   Clear
3:35 AM 8.6 °F - 5.0 °F 85% 30.32 in 4.0 mi Calm Calm - N/A   Clear
3:55 AM 8.6 °F - 5.0 °F 85% 30.32 in 4.0 mi Calm Calm - N/A   Clear
4:15 AM 8.6 °F - 5.0 °F 85% 30.33 in 4.0 mi Calm Calm - N/A   Clear
4:35 AM 8.6 °F - 5.0 °F 85% 30.33 in 3.0 mi Calm Calm - N/A   Clear
4:55 AM 6.8 °F - 3.2 °F 85% 30.34 in 5.0 mi Calm Calm - N/A   Clear
5:15 AM 6.8 °F -0.1 °F 3.2 °F 85% 30.34 in 5.0 mi ENE 3.5 mph - N/A   Clear
5:35 AM 8.6 °F - 3.2 °F 79% 30.33 in 7.0 mi Calm Calm - N/A   Clear
5:55 AM 6.8 °F - 3.2 °F 85% 30.34 in 5.0 mi Calm Calm - N/A   Clear
6:15 AM 6.8 °F -2.0 °F 3.2 °F 85% 30.34 in 7.0 mi ENE 4.6 mph - N/A   Clear
6:35 AM 8.6 °F - 5.0 °F 85% 30.35 in 7.0 mi Calm Calm - N/A   Clear
6:55 AM 8.6 °F - 5.0 °F 85% 30.35 in 7.0 mi Calm Calm - N/A   Clear
7:15 AM 8.6 °F - 5.0 °F 85% 30.35 in 7.0 mi Calm Calm - N/A   Clear
7:35 AM 8.6 °F 2.0 °F 5.0 °F 85% 30.36 in 7.0 mi East 3.5 mph - N/A   Clear
7:55 AM 8.6 °F - 5.0 °F 85% 30.36 in 7.0 mi Calm Calm - N/A   Clear
8:15 AM 8.6 °F - 5.0 °F 85% 30.37 in 7.0 mi Calm Calm - N/A   Clear
8:35 AM 10.4 °F - 6.8 °F 85% 30.36 in 10.0 mi Calm Calm - N/A   Clear
8:55 AM 12.2 °F - 10.4 °F 92% 30.36 in 10.0 mi Calm Calm - N/A   Clear
9:15 AM 15.8 °F - 14.0 °F 93% 30.37 in 10.0 mi Calm Calm - N/A   Clear
9:35 AM 19.4 °F 12.8 °F 17.6 °F 93% 30.36 in 10.0 mi SE 4.6 mph - N/A   Clear
9:55 AM 21.2 °F 13.6 °F 19.4 °F 93% 30.36 in 10.0 mi SSE 5.8 mph - N/A   Clear
10:15 AM 21.2 °F 13.6 °F 19.4 °F 93% 30.37 in 10.0 mi SSE 5.8 mph - N/A   Clear
10:35 AM 23.0 °F 14.7 °F 19.4 °F 86% 30.36 in 7.0 mi SSE 6.9 mph - N/A   Clear
10:55 AM 23.0 °F - 19.4 °F 86% 30.36 in 7.0 mi Calm Calm - N/A   Clear
11:15 AM 24.8 °F - 19.4 °F 80% 30.36 in 7.0 mi Calm Calm - N/A   Clear
11:35 AM 24.8 °F 19.1 °F 19.4 °F 80% 30.36 in 10.0 mi SSE 4.6 mph - N/A   Clear
11:55 AM 26.6 °F - 19.4 °F 74% 30.37 in 10.0 mi Calm Calm - N/A   Clear
12:15 PM 26.6 °F - 19.4 °F 74% 30.38 in 10.0 mi Calm Calm - N/A   Clear
12:35 PM 28.4 °F - 21.2 °F 74% 30.36 in 10.0 mi Calm Calm - N/A   Clear
12:55 PM 28.4 °F - 21.2 °F 74% 30.36 in 10.0 mi Calm Calm - N/A   Clear
1:15 PM 28.4 °F - 21.2 °F 74% 30.36 in 10.0 mi Calm Calm - N/A   Clear
1:35 PM 28.4 °F - 21.2 °F 74% 30.34 in 7.0 mi Calm Calm - 0.01 in   Clear
1:55 PM 28.4 °F 20.4 °F 21.2 °F 74% 30.33 in 10.0 mi ESE 8.1 mph - 0.01 in   Clear
2:15 PM 28.4 °F 19.7 °F 21.2 °F 74% 30.32 in 10.0 mi ESE 9.2 mph - N/A   Clear
2:35 PM 28.4 °F 19.7 °F 21.2 °F 74% 30.33 in 10.0 mi ESE 9.2 mph - N/A   Clear
2:55 PM 28.4 °F 19.7 °F 21.2 °F 74% 30.33 in 10.0 mi ESE 9.2 mph - N/A   Clear
3:15 PM 28.4 °F 19.7 °F 21.2 °F 74% 30.33 in 7.0 mi SE 9.2 mph - N/A   Clear
3:35 PM 28.4 °F 19.7 °F 21.2 °F 74% 30.33 in 7.0 mi SE 9.2 mph - N/A   Clear
3:55 PM 28.4 °F 19.7 °F 21.2 °F 74% 30.32 in 7.0 mi ESE 9.2 mph - N/A   Clear
4:15 PM 26.6 °F 17.5 °F 21.2 °F 80% 30.32 in 7.0 mi SE 9.2 mph - N/A   Clear
4:35 PM 26.6 °F 16.8 °F 21.2 °F 80% 30.32 in 10.0 mi ESE 10.4 mph - N/A   Clear
4:55 PM 26.6 °F 16.8 °F 21.2 °F 80% 30.32 in 7.0 mi SE 10.4 mph - N/A   Clear
5:15 PM 24.8 °F 16.1 °F 21.2 °F 86% 30.32 in 7.0 mi SE 8.1 mph - N/A   Clear
5:35 PM 24.8 °F 14.0 °F 21.2 °F 86% 30.32 in 7.0 mi ESE 11.5 mph - N/A   Clear
5:55 PM 23.0 °F 12.4 °F 19.4 °F 86% 30.33 in 7.0 mi ESE 10.4 mph - N/A   Clear
7:35 PM 21.2 °F 10.1 °F 17.6 °F 86% 30.32 in 7.0 mi ESE 10.4 mph - N/A   Clear
7:55 PM 19.4 °F 8.6 °F 17.6 °F 93% 30.32 in 7.0 mi ESE 9.2 mph - N/A   Clear
8:15 PM 19.4 °F 7.9 °F 17.6 °F 93% 30.32 in 7.0 mi ESE 10.4 mph - N/A   Clear
8:35 PM 19.4 °F 8.6 °F 17.6 °F 93% 30.33 in 7.0 mi ESE 9.2 mph - N/A   Clear
8:55 PM 19.4 °F 7.9 °F 17.6 °F 93% 30.32 in 7.0 mi ESE 10.4 mph - N/A   Clear
9:15 PM 19.4 °F 7.2 °F 17.6 °F 93% 30.32 in 7.0 mi ESE 11.5 mph - N/A   Clear
9:35 PM 21.2 °F 9.5 °F 19.4 °F 93% 30.32 in 7.0 mi ESE 11.5 mph - N/A   Clear
9:55 PM 23.0 °F 11.7 °F 19.4 °F 86% 30.32 in 10.0 mi ESE 11.5 mph - N/A   Clear
10:15 PM 23.0 °F 12.4 °F 19.4 °F 86% 30.33 in 10.0 mi SE 10.4 mph - N/A   Clear
10:35 PM 23.0 °F 10.6 °F 19.4 °F 86% 30.33 in 10.0 mi SE 13.8 mph - N/A   Clear
10:55 PM 23.0 °F 12.4 °F 19.4 °F 86% 30.33 in 10.0 mi SE 10.4 mph - N/A   Clear
11:15 PM 23.0 °F 11.7 °F 19.4 °F 86% 30.33 in 10.0 mi SE 11.5 mph - N/A   Clear
11:35 PM 21.2 °F 10.1 °F 19.4 °F 93% 30.34 in 10.0 mi SE 10.4 mph - N/A   Clear
11:55 PM 23.0 °F 11.7 °F 19.4 °F 86% 30.33 in 10.0 mi SE 11.5 mph - N/A   Clear